Showing default

EXPLORER 38 (RAE-A), 3307

Orbit data source: Space-Track

EXPLORER 38 (RAE-A), 3307 is a payload satellite owned by GSFC (US) that was launched on Thu, 04 Jul 1968 UTC via a THOR DELTA J launch vehicle from the Air Force Western Test Range (AFWTR). Payload-class satellites include a variety of spacecraft equipped with specific instruments for various scientific and technological missions. These include communications satellites like Starlink; space stations such as the ISS; scientific satellites like the Hubble; Earth observation satellites from companies like Planet Labs, Umbra, and HawkEye 360; GPS; miniature CubeSats for education and research; and military/defense satellites.

Loading next visibility...
Identifier
3307, 1968-055A
Orbit
Active
Country
Flag of USUS
Related business
Manufacturer
GSFC/FAIRH
Mission
Spacecraft
Bus & Motor
RAE, Unknown motor
Mass
189 kg wet, 189 kg dry
Launch date (UTC)
1968-07-04 (58 years ago)
Launch vehicle
THOR DELTA J
Launch site
Air Force Western Test Range (AFWTR)
Object type
Payload
Rocket body
Debris
Shape & HBR
Unknown
Radar Cross Section
Large (>1 m²)

Expand to show TLE details & history
Last TLE update: 21 hours ago

TLE from 21 hours ago
0 EXPLORER 38 (RAE-A)
1 03307U 68055A   26177.85222043 -.00000010  00000-0  00000-0 0  9998
2 03307 120.8045 168.2294 0018061 283.7250  76.1342  6.42543099360059
Epoch: 2026-06-26T20:27Z
TLE epoch observation values (Epoch: 2026-06-26T20:27:11.845Z)
Latitude
-0.00002°
Longitude
-53.54473°
Altitude
5,839.225 km
Speed
5.714 km/s
True Right ascension
11h 12m 55s
True Declination
0° 00' 00"
Sunlit
Object was in daylight at epoch
Visualization orbit readout
Latitude
Unknown
Longitude
Unknown
Altitude
Unknown
Speed
Unknown
Apparent Right ascension
Unknown
Apparent Declination
Unknown
Sunlit
N/A
Visualization observer readout
Local Sidereal Time
04:26:38
Azimuth
Unknown
Elevation
Unknown
Doppler factor
Unknown
Orbital elements
Apogee altitude
5,865.317 km
Perigee altitude
5,821.171 km
Semi-major axis
12,221.381 km
Eccentricity
0.00181
Inclination
120.8045°
RAAN
168.2294°
Arg. of periapsis
283.725°
True anomaly
76.33524°
Mean anomaly
76.1342°
Eccentric anomaly
76.23471°
Mean motion
1.60643 °/min
Orbital period
224.1 mins
BSTAR
0
Loading maneuver chart data...
Computing Atmospheric mass density...
Loading historical data...
Loading historical data...
Loading historical data...
Loading historical data...
Loading historical data...
Loading historical data...
Loading historical data...

Documentation

Showing up to 5 results
|